Hourly Data Report for December 26, 2011

HALIFAX STANFIELD INT'L A
NOVA SCOTIA

44°52'48.060" N
63°30'00.050" W
145.40 m
8202250
71395
YHZ

Download Data

Hourly Data (December 2011)
Hourly Data Report for December 26, 2011
TIME
LST
Temp Definition
°C
Dew Point Definition
°C
Rel Hum Definition
%
Precip. Amount Definition
mm

Wind Dir Definition
10's deg

Wind Spd Definition
km/h
Visibility Definition
km
Stn Press Definition
kPa
Hmdx Definition


Wind Chill Definition


Weather Definition


00:00 -9.0 -10.4 90   14 15 24.1 100.12   -16 Mainly Clear
01:00 -8.7 -10.1 90   15 17 24.1 99.97   -16 Mainly Clear
02:00 -7.4 -8.7 90   17 19 24.1 99.90   -14 Mainly Clear
03:00 -5.7 -7.0 91   15 17 24.1 99.79   -12 Mostly Cloudy
04:00 -4.6 -6.0 90   15 15 24.1 99.70   -10 Cloudy
05:00 -3.9 -5.1 91   15 15 4.8 99.58   -9 Snow Showers
06:00 -2.8 -3.5 95   16 17 2.4 99.52   -8 Snow Showers
07:00 -1.8 -2.3 96   17 20 2.4 99.47   -8 Snow Showers
08:00 -1.0 -1.4 97   16 15 4.8 99.43   -6 Snow Showers
09:00 -0.5 -0.9 97   15 17 2.4 99.46   -5 Snow Showers
10:00 0.2 -0.2 97   16 19 2.4 99.48     Snow Showers
11:00 0.4 0.1 98   16 15 3.2 99.49     Snow Showers
12:00 0.3 0.0 98   15 13 1.6 99.39     Snow Showers
13:00 0.9 0.5 97   14 13 8.0 99.36     Rain Showers, Fog
14:00 1.4 1.0 97   17 15 9.7 99.41     Rain Showers, Fog
15:00 2.1 1.8 98   17 9 16.1 99.43     Cloudy
16:00 1.7 1.3 97   27 6 4.8 99.52     Fog
17:00 1.4 1.0 97   31 9 2.4 99.60     Fog
18:00 0.9 0.4 96   33 19 16.1 99.71     Cloudy
19:00 0.2 -0.2 97   35 17 9.7 99.79     Fog
20:00 0.0 -1.1 92   2 13 16.1 99.89   -4 Cloudy
21:00 -0.7 -1.4 95   36 17 24.1 99.94   -6 Cloudy
22:00 -0.8 -1.4 96   36 13 3.2 99.98   -5 Snow Showers
23:00 -1.5 -2.2 95   33 15 12.9 100.01   -6 Snow Showers

Notes on Data Quality.

Legend

  • E = Estimated
  • M = Missing
  • NA = Not Available*
  • [empty] = Indicates an unobserved value
Date modified: